Location: Glion
(46.4330°N, 6.9246°E)
Time: 15:29:26
(UTC+00:00)

Cosmos 1066 Rocket - Pass Details

Date: 03 March 2021
Orbit: 799 x 894 km, 81.2° (Epoch: 19 April)

Event Time Altitude Azimuth Distance (km) Brightness Sun altitude
Rises 19:35:33 0° 348° (NNW) 3,439 7.7 -23.7°
Reaches altitude 10° 19:37:58 10° 349° (N) 2,513 7.0 -24.1°
Maximum altitude 19:43:43 89° 76° (ENE) 884 4.2 -25.0°
Enters shadow 19:45:38 45° 170° (S) 1,189 4.7 -25.4°
